When you browse on this site, cookies collect data to enhance your experience and personalize the content and advertising you see.
Visit our Privacy Policy to learn more. By continuing to use the site, you agree to this use of cookies and data.
  • In Lithuania
  • List of Countries
  • For 7 days
  • Water Temperature
  • Weather Map
  • Weather Widgets
  • user-avatar
    Login

    Hourly Weather Saint John's

    Today, 5 June, Friday

    Time Temperature Precipitation Wind Pressure Humidity
    00:00 +10°C° 0 mm 5 mps 753 mmHg 96%
    01:00 +9°C° 0 mm 5 mps 754 mmHg 97%
    02:00 +10°C° 0 mm 4 mps 754 mmHg 98%
    03:00 +10°C° 0 mm 4 mps 754 mmHg 96%
    04:00 +8°C° 0 mm 4 mps 754 mmHg 95%
    05:00 +8°C° 0 mm 4 mps 754 mmHg 94%
    06:00 +11°C° 0 mm 3 mps 755 mmHg 88%
    07:00 +12°C° 0 mm 3 mps 755 mmHg 83%
    08:00 +14°C° 0 mm 3 mps 755 mmHg 77%
    09:00 +16°C° 0 mm 3 mps 755 mmHg 72%
    10:00 +18°C° 0 mm 3 mps 755 mmHg 66%
    11:00 +19°C° 0 mm 4 mps 755 mmHg 61%
    12:00 +20°C° 0 mm 4 mps 755 mmHg 59%
    13:00 +20°C° 0 mm 5 mps 754 mmHg 58%
    14:00 +21°C° 0 mm 5 mps 754 mmHg 57%
    15:00 +20°C° 0 mm 6 mps 754 mmHg 61%
    16:00 +17°C° 0 mm 7 mps 754 mmHg 65%
    17:00 +16°C° 0 mm 7 mps 753 mmHg 70%
    18:00 +15°C° 0 mm 7 mps 754 mmHg 73%
    19:00 +12°C° 0 mm 7 mps 754 mmHg 76%
    20:00 +11°C° 0 mm 7 mps 754 mmHg 79%
    21:00 +10°C° 0 mm 7 mps 754 mmHg 80%
    22:00 +10°C° 0 mm 7 mps 754 mmHg 81%
    23:00 +10°C° 0 mm 7 mps 753 mmHg 82%

    Tomorrow, 6 June, Saturday

    Time Temperature Precipitation Wind Pressure Humidity
    00:00 +11°C° 0 mm 7 mps 753 mmHg 80%
    01:00 +11°C° 0 mm 7 mps 753 mmHg 78%
    02:00 +12°C° 0 mm 7 mps 753 mmHg 76%
    03:00 +12°C° 0 mm 7 mps 753 mmHg 79%
    04:00 +13°C° 0 mm 6 mps 753 mmHg 81%
    05:00 +13°C° 0 mm 6 mps 753 mmHg 84%
    06:00 +14°C° 0 mm 6 mps 753 mmHg 83%
    07:00 +15°C° 0 mm 6 mps 753 mmHg 82%
    08:00 +16°C° 0 mm 6 mps 752 mmHg 81%
    09:00 +17°C° 0 mm 5 mps 752 mmHg 81%
    10:00 +17°C° 0 mm 5 mps 752 mmHg 81%
    11:00 +17°C° 0 mm 5 mps 752 mmHg 81%
    12:00 +19°C° 0 mm 5 mps 752 mmHg 78%
    13:00 +20°C° 0 mm 5 mps 752 mmHg 75%
    14:00 +21°C° 0 mm 5 mps 751 mmHg 72%
    15:00 +19°C° 0 mm 5 mps 751 mmHg 76%
    16:00 +17°C° 0 mm 5 mps 751 mmHg 80%
    17:00 +16°C° 0 mm 5 mps 751 mmHg 84%
    18:00 +15°C° 0 mm 5 mps 751 mmHg 88%
    19:00 +14°C° 0 mm 5 mps 751 mmHg 91%
    20:00 +13°C° 0 mm 5 mps 751 mmHg 94%
    21:00 +13°C° 0.5 mm 5 mps 751 mmHg 94%
    22:00 +13°C° 0.5 mm 6 mps 750 mmHg 94%
    23:00 +14°C° 0.5 mm 6 mps 750 mmHg 94%

    Day after tomorrow, 7 June, Sunday

    Time Temperature Precipitation Wind Pressure Humidity
    00:00 +14°C° 0.4 mm 6 mps 750 mmHg 95%
    01:00 +14°C° 0.4 mm 7 mps 749 mmHg 95%
    02:00 +14°C° 0.4 mm 7 mps 749 mmHg 96%
    03:00 +14°C° 0.5 mm 7 mps 749 mmHg 96%
    04:00 +15°C° 0.5 mm 8 mps 749 mmHg 95%
    05:00 +15°C° 0.5 mm 8 mps 749 mmHg 94%
    06:00 +15°C° 0.5 mm 8 mps 749 mmHg 95%
    07:00 +15°C° 0.5 mm 8 mps 749 mmHg 95%
    08:00 +15°C° 0.5 mm 7 mps 749 mmHg 95%
    09:00 +15°C° 1.4 mm 7 mps 749 mmHg 95%
    10:00 +14°C° 1.4 mm 7 mps 749 mmHg 95%
    11:00 +14°C° 1.4 mm 7 mps 749 mmHg 94%
    12:00 +14°C° 2.3 mm 6 mps 749 mmHg 95%
    13:00 +14°C° 2.3 mm 5 mps 749 mmHg 96%
    14:00 +14°C° 2.3 mm 5 mps 749 mmHg 96%
    15:00 +14°C° 2.5 mm 5 mps 749 mmHg 97%
    16:00 +14°C° 2.5 mm 5 mps 749 mmHg 97%
    17:00 +13°C° 2.5 mm 5 mps 749 mmHg 97%
    18:00 +13°C° 3.7 mm 5 mps 749 mmHg 97%
    19:00 +13°C° 3.7 mm 5 mps 749 mmHg 98%
    20:00 +12°C° 3.7 mm 5 mps 749 mmHg 98%
    21:00 +12°C° 2.2 mm 5 mps 748 mmHg 98%
    22:00 +12°C° 2.2 mm 5 mps 747 mmHg 98%
    23:00 +12°C° 2.2 mm 5 mps 747 mmHg 98%

    8 June, Monday

    Time Temperature Precipitation Wind Pressure Humidity
    00:00 +12°C° 2.8 mm 5 mps 746 mmHg 99%
    01:00 +10°C° 2.8 mm 5 mps 746 mmHg 99%
    02:00 +11°C° 2.8 mm 4 mps 745 mmHg 99%
    03:00 +11°C° 2 mm 4 mps 745 mmHg 99%
    04:00 +11°C° 2 mm 4 mps 744 mmHg 99%
    05:00 +10°C° 2 mm 4 mps 744 mmHg 99%
    06:00 +10°C° 0.2 mm 4 mps 744 mmHg 98%
    07:00 +10°C° 0.2 mm 4 mps 744 mmHg 97%
    08:00 +10°C° 0.2 mm 3 mps 744 mmHg 96%
    09:00 +8°C° 0.2 mm 4 mps 744 mmHg 96%
    10:00 +7°C° 0.2 mm 5 mps 744 mmHg 97%
    11:00 +5°C° 0.2 mm 5 mps 744 mmHg 97%
    12:00 +4°C° 0.1 mm 6 mps 744 mmHg 96%
    13:00 +4°C° 0.1 mm 6 mps 745 mmHg 95%
    14:00 +3°C° 0.1 mm 7 mps 745 mmHg 95%
    15:00 +3°C° 0.2 mm 7 mps 745 mmHg 95%
    16:00 +3°C° 0.2 mm 7 mps 746 mmHg 95%
    17:00 +2°C° 0.2 mm 7 mps 747 mmHg 95%
    18:00 +2°C° 0.2 mm 7 mps 747 mmHg 96%
    19:00 +2°C° 0.2 mm 7 mps 747 mmHg 96%
    20:00 +2°C° 0.2 mm 7 mps 748 mmHg 97%
    21:00 +2°C° 0.5 mm 7 mps 748 mmHg 97%
    22:00 +2°C° 0.5 mm 7 mps 748 mmHg 97%
    23:00 +2°C° 0.5 mm 7 mps 749 mmHg 97%

    9 June, Tuesday

    Time Temperature Precipitation Wind Pressure Humidity
    00:00 +2°C° 0.5 mm 7 mps 749 mmHg 97%
    01:00 +2°C° 0.5 mm 6 mps 750 mmHg 97%
    02:00 +2°C° 0.5 mm 6 mps 750 mmHg 97%
    03:00 +2°C° 0.1 mm 6 mps 751 mmHg 96%
    04:00 +2°C° 0.1 mm 6 mps 752 mmHg 95%
    05:00 +2°C° 0.1 mm 5 mps 753 mmHg 94%
    06:00 +4°C° 0 mm 4 mps 753 mmHg 92%
    07:00 +4°C° 0 mm 4 mps 754 mmHg 89%
    08:00 +5°C° 0 mm 3 mps 755 mmHg 87%
    09:00 +8°C° 0 mm 3 mps 755 mmHg 77%
    10:00 +12°C° 0 mm 2 mps 756 mmHg 67%
    11:00 +14°C° 0 mm 2 mps 756 mmHg 57%
    12:00 +13°C° 0 mm 3 mps 756 mmHg 55%
    13:00 +14°C° 0 mm 4 mps 757 mmHg 52%
    14:00 +15°C° 0 mm 6 mps 757 mmHg 50%
    15:00 +14°C° 0 mm 6 mps 757 mmHg 52%
    16:00 +13°C° 0 mm 6 mps 758 mmHg 55%
    17:00 +13°C° 0 mm 6 mps 758 mmHg 57%
    18:00 +10°C° 0 mm 6 mps 759 mmHg 63%
    19:00 +8°C° 0 mm 5 mps 759 mmHg 69%
    20:00 +7°C° 0 mm 4 mps 760 mmHg 74%
    21:00 +6°C° 0 mm 4 mps 760 mmHg 73%
    22:00 +6°C° 0 mm 4 mps 760 mmHg 72%
    23:00 +5°C° 0 mm 4 mps 761 mmHg 71%

    10 June, Wednesday

    Time Temperature Precipitation Wind Pressure Humidity
    00:00 +5°C° 0 mm 5 mps 761 mmHg 74%
    01:00 +5°C° 0 mm 5 mps 761 mmHg 76%
    02:00 +5°C° 0 mm 5 mps 761 mmHg 79%
    03:00 +5°C° 0 mm 5 mps 762 mmHg 80%
    04:00 +5°C° 0 mm 4 mps 762 mmHg 81%
    05:00 +5°C° 0 mm 4 mps 763 mmHg 82%
    06:00 +8°C° 0 mm 3 mps 763 mmHg 75%
    07:00 +10°C° 0 mm 3 mps 763 mmHg 68%
    08:00 +13°C° 0 mm 2 mps 764 mmHg 61%
    09:00 +15°C° 0 mm 2 mps 764 mmHg 55%
    10:00 +16°C° 0 mm 2 mps 764 mmHg 50%
    11:00 +17°C° 0 mm 2 mps 764 mmHg 44%
    12:00 +18°C° 0 mm 2 mps 764 mmHg 45%
    13:00 +18°C° 0 mm 3 mps 764 mmHg 46%
    14:00 +18°C° 0 mm 4 mps 764 mmHg 47%
    15:00 +17°C° 0 mm 4 mps 764 mmHg 53%
    16:00 +15°C° 0 mm 4 mps 765 mmHg 58%
    17:00 +15°C° 0 mm 4 mps 765 mmHg 64%
    18:00 +13°C° 0 mm 4 mps 765 mmHg 70%
    19:00 +11°C° 0 mm 4 mps 765 mmHg 75%
    20:00 +8°C° 0 mm 5 mps 765 mmHg 81%
    21:00 +8°C° 0.3 mm 5 mps 765 mmHg 83%
    22:00 +8°C° 0.3 mm 5 mps 765 mmHg 84%
    23:00 +8°C° 0.3 mm 6 mps 765 mmHg 85%
    Show more